Snowfall_Accumulation
0.0 0.0 0.0 0.0 0.0 0.0 0.0 0.0 0.0 0.1 0.0 0.0 0.0 0.0 0.0 0.0 0.0 0.0 0.0 0.0 0.0 0.0 0.0 0.0 0.0 0.0 0.0
0.6 0.7 0.5 0.0 0.0 0.0 0.0 0.0 0.0 0.0 0.0 0.0 0.0 0.0 0.0 0.0 0.3 0.2 0.3 0.0 0.0 0.0 0.0 0.0 0.0 0.0 0.0
0.5 0.2 0.7 0.0 2.1 0.3 0.0 0.0 0.0 0.0 0.0 0.0 0.0 0.0 0.0 0.0 0.1 0.1 0.1 0.3 0.1 0.0 0.0 0.0 0.0 0.0 0.0
0.6 0.7 1.5 0.9 0.7 1.1 0.3 0.4 0.0 0.0 0.0 0.0 0.0 0.0 0.0 0.0 0.0 0.0 0.0 0.0 0.0 0.0 0.0 0.0 0.1 0.0 0.0
1.8 1.4 0.6 0.4 0.3 0.2 0.5 0.2 0.1 0.0 0.0 0.0 0.0 0.0 0.0 0.0 0.0 0.0 0.0 0.0 0.1 0.4 0.4 0.6 0.4 0.4 0.1
1.6 0.3 0.1 0.2 0.0 0.3 1.2 0.8 1.1 0.0 0.0 0.0 0.0 0.0 0.0 0.0 0.0 0.0 0.1 0.1 0.1 0.2 0.9 0.4 0.7 0.8 0.7
0.3 0.3 0.2 0.3 0.9 1.1 1.1 1.6 0.7 0.0 0.1 0.2 0.0 0.0 0.0 0.0 0.0 0.0 0.0 0.1 0.1 0.4 0.8 0.9 0.7 0.8 0.5
0.2 0.4 0.8 0.3 0.8 1.4 1.2 1.5 0.6 0.0 0.0 1.9 0.0 0.0 0.0 0.0 0.0 0.0 0.0 0.1 0.1 0.4 0.7 1.4 1.1 0.3 0.4
0.2 0.0 0.0 0.0 0.0 0.8 4.0 4.4 2.4 0.4 0.0 1.1 0.2 0.1 0.1 0.0 0.0 0.0 0.0 0.1 0.1 0.2 0.3 0.8 0.5 0.8 0.4
0.0 0.0 0.0 0.0 0.0 0.0 2.6 7.1 5.2 2.9 0.4 2.7 0.3 1.0 3.4 0.0 0.0 0.0 0.0 0.0 0.0 0.0 0.2 0.3 0.5 0.6 1.0
0.7 0.1 0.0 0.0 1.2 0.8 0.3 4.0 8.5 6.4 0.0 7.1 7.3 2.1 6.0 1.7 0.1 0.0 0.0 0.0 0.2 0.0 0.0 0.1 1.2 2.0 3.7
1.9 1.6 1.4 0.6 0.3 0.9 1.0 0.2 0.6 3.2 0.9 1.8 13.6 4.2 8.5 6.5 0.9 0.0 0.0 0.0 0.0 0.4 0.2 0.9 1.4 2.3 2.3
1.1 0.9 0.5 1.2 1.4 1.8 1.5 2.2 2.0 0.9 0.5 1.5 4.9 4.9 9.3 10.2 5.2 0.5 1.5 0.0 0.1 0.9 1.6 2.4 2.6 3.0 3.4
2.0 1.2 1.5 1.5 1.6 1.3 2.8 1.8 3.7 1.7 1.6 1.2 1.6 5.0 9.1 4.1 6.7 3.8 1.7 4.7 0.9 0.9 2.3 1.7 2.0 2.7 3.2
2.3 2.1 1.4 1.5 1.6 1.5 3.2 3.4 5.6 1.5 1.5 1.6 2.4 3.1 3.3 4.5 7.8 2.4 2.7 2.3 2.5 3.7 3.8 2.7 1.0 2.6 3.1
3.7 3.7 5.7 5.3 4.0 5.3 4.5 6.1 7.7 5.6 5.9 5.4 4.0 6.7 5.2 5.0 3.9 4.2 3.8 3.2 2.8 3.2 3.6 6.9 2.9 0.6 0.7
8.7 8.2 8.7 8.3 7.9 6.8 6.2 7.1 7.4 7.0 7.4 7.5 9.6 12.6 13.5 6.7 3.5 2.4 7.9 5.7 2.8 3.6 3.4 5.2 6.3 4.0 2.2